Date Hour Ending, MW ,,,,,,,,,,,,,,,,,
02/01/2018 1:00,596,,,,,,,,,,,,,,,,,
02/01/2018 2:00,556,,,,,,,,,,,,,,,,,
02/01/2018 3:00,525,,,,,,,,,,,,,,,,,
02/01/2018 4:00,524,,,,,,,,,,,,,,,,,
02/01/2018 5:00,505,,,,,,,,,,,,,,,,,
02/01/2018 6:00,528,,,,,,,,,,,,,,,,,
02/01/2018 7:00,569,,,,,,,,,,,,,,,,,
02/01/2018 8:00,583,,,,,,,,,,,,,,,,,
02/01/2018 9:00,561,,,,,,,,,,,,,,,,,
02/01/2018 10:00,551,,,,,,,,,,,,,,,,,
02/01/2018 11:00,545,,,,,,,,,,,,,,,,,
02/01/2018 12:00,525,,,,,,,,,,,,,,,,,
02/01/2018 13:00,541,,,,,,,,,,,,,,,,,
02/01/2018 14:00,535,,,,,,,,,,,,,,,,,
02/01/2018 15:00,543,,,,,,,,,,,,,,,,,
02/01/2018 16:00,528,,,,,,,,,,,,,,,,,
02/01/2018 17:00,539,,,,,,,,,,,,,,,,,
02/01/2018 18:00,547,,,,,,,,,,,,,,,,,
02/01/2018 19:00,549,,,,,,,,,,,,,,,,,
02/01/2018 20:00,516,,,,,,,,,,,,,,,,,
02/01/2018 21:00,492,,,,,,,,,,,,,,,,,
02/01/2018 22:00,452,,,,,,,,,,,,,,,,,
02/01/2018 23:00,391,,,,,,,,,,,,,,,,,
02/02/2018 0:00,376,,,,,,,,,,,,,,,,,
02/02/2018 1:00,401,,,,,,,,,,,,,,,,,
02/02/2018 2:00,391,,,,,,,,,,,,,,,,,
02/02/2018 3:00,375,,,,,,,,,,,,,,,,,
02/02/2018 4:00,366,,,,,,,,,,,,,,,,,
02/02/2018 5:00,383,,,,,,,,,,,,,,,,,
02/02/2018 6:00,406,,,,,,,,,,,,,,,,,
02/02/2018 7:00,445,,,,,,,,,,,,,,,,,
02/02/2018 8:00,501,,,,,,,,,,,,,,,,,
02/02/2018 9:00,483,,,,,,,,,,,,,,,,,
02/02/2018 10:00,494,,,,,,,,,,,,,,,,,
02/02/2018 11:00,503,,,,,,,,,,,,,,,,,
02/02/2018 12:00,563,,,,,,,,,,,,,,,,,
02/02/2018 13:00,567,,,,,,,,,,,,,,,,,
02/02/2018 14:00,568,,,,,,,,,,,,,,,,,
02/02/2018 15:00,579,,,,,,,,,,,,,,,,,
02/02/2018 16:00,561,,,,,,,,,,,,,,,,,
02/02/2018 17:00,489,,,,,,,,,,,,,,,,,
02/02/2018 18:00,505,,,,,,,,,,,,,,,,,
02/02/2018 19:00,515,,,,,,,,,,,,,,,,,
02/02/2018 20:00,500,,,,,,,,,,,,,,,,,
02/02/2018 21:00,507,,,,,,,,,,,,,,,,,
02/02/2018 22:00,524,,,,,,,,,,,,,,,,,
02/02/2018 23:00,506,,,,,,,,,,,,,,,,,
02/03/2018 0:00,495,,,,,,,,,,,,,,,,,
02/03/2018 1:00,501,,,,,,,,,,,,,,,,,
02/03/2018 2:00,515,,,,,,,,,,,,,,,,,
02/03/2018 3:00,488,,,,,,,,,,,,,,,,,
02/03/2018 4:00,493,,,,,,,,,,,,,,,,,
02/03/2018 5:00,510,,,,,,,,,,,,,,,,,
02/03/2018 6:00,508,,,,,,,,,,,,,,,,,
02/03/2018 7:00,518,,,,,,,,,,,,,,,,,
02/03/2018 8:00,557,,,,,,,,,,,,,,,,,
02/03/2018 9:00,629,,,,,,,,,,,,,,,,,
02/03/2018 10:00,653,,,,,,,,,,,,,,,,,
02/03/2018 11:00,651,,,,,,,,,,,,,,,,,
02/03/2018 12:00,691,,,,,,,,,,,,,,,,,
02/03/2018 13:00,658,,,,,,,,,,,,,,,,,
02/03/2018 14:00,629,,,,,,,,,,,,,,,,,
02/03/2018 15:00,615,,,,,,,,,,,,,,,,,
02/03/2018 16:00,638,,,,,,,,,,,,,,,,,
02/03/2018 17:00,685,,,,,,,,,,,,,,,,,
02/03/2018 18:00,767,,,,,,,,,,,,,,,,,
02/03/2018 19:00,823,,,,,,,,,,,,,,,,,
02/03/2018 20:00,808,,,,,,,,,,,,,,,,,
02/03/2018 21:00,797,,,,,,,,,,,,,,,,,
02/03/2018 22:00,784,,,,,,,,,,,,,,,,,
02/03/2018 23:00,762,,,,,,,,,,,,,,,,,
02/04/2018 0:00,737,,,,,,,,,,,,,,,,,
02/04/2018 1:00,677,,,,,,,,,,,,,,,,,
02/04/2018 2:00,597,,,,,,,,,,,,,,,,,
02/04/2018 3:00,552,,,,,,,,,,,,,,,,,
02/04/2018 4:00,533,,,,,,,,,,,,,,,,,
02/04/2018 5:00,499,,,,,,,,,,,,,,,,,
02/04/2018 6:00,499,,,,,,,,,,,,,,,,,
02/04/2018 7:00,508,,,,,,,,,,,,,,,,,
02/04/2018 8:00,507,,,,,,,,,,,,,,,,,
02/04/2018 9:00,511,,,,,,,,,,,,,,,,,
02/04/2018 10:00,582,,,,,,,,,,,,,,,,,
02/04/2018 11:00,616,,,,,,,,,,,,,,,,,
02/04/2018 12:00,581,,,,,,,,,,,,,,,,,
02/04/2018 13:00,571,,,,,,,,,,,,,,,,,
02/04/2018 14:00,578,,,,,,,,,,,,,,,,,
02/04/2018 15:00,566,,,,,,,,,,,,,,,,,
02/04/2018 16:00,552,,,,,,,,,,,,,,,,,
02/04/2018 17:00,580,,,,,,,,,,,,,,,,,
02/04/2018 18:00,577,,,,,,,,,,,,,,,,,
02/04/2018 19:00,560,,,,,,,,,,,,,,,,,
02/04/2018 20:00,496,,,,,,,,,,,,,,,,,
02/04/2018 21:00,487,,,,,,,,,,,,,,,,,
02/04/2018 22:00,461,,,,,,,,,,,,,,,,,
02/04/2018 23:00,451,,,,,,,,,,,,,,,,,
02/05/2018 0:00,391,,,,,,,,,,,,,,,,,
02/05/2018 1:00,339,,,,,,,,,,,,,,,,,
02/05/2018 2:00,315,,,,,,,,,,,,,,,,,
02/05/2018 3:00,311,,,,,,,,,,,,,,,,,
02/05/2018 4:00,302,,,,,,,,,,,,,,,,,
02/05/2018 5:00,314,,,,,,,,,,,,,,,,,
02/05/2018 6:00,396,,,,,,,,,,,,,,,,,
02/05/2018 7:00,490,,,,,,,,,,,,,,,,,
02/05/2018 8:00,577,,,,,,,,,,,,,,,,,
02/05/2018 9:00,586,,,,,,,,,,,,,,,,,
02/05/2018 10:00,542,,,,,,,,,,,,,,,,,
02/05/2018 11:00,540,,,,,,,,,,,,,,,,,
02/05/2018 12:00,548,,,,,,,,,,,,,,,,,
02/05/2018 13:00,556,,,,,,,,,,,,,,,,,
02/05/2018 14:00,526,,,,,,,,,,,,,,,,,
02/05/2018 15:00,489,,,,,,,,,,,,,,,,,
02/05/2018 16:00,490,,,,,,,,,,,,,,,,,
02/05/2018 17:00,493,,,,,,,,,,,,,,,,,
02/05/2018 18:00,534,,,,,,,,,,,,,,,,,
02/05/2018 19:00,544,,,,,,,,,,,,,,,,,
02/05/2018 20:00,540,,,,,,,,,,,,,,,,,
02/05/2018 21:00,511,,,,,,,,,,,,,,,,,
02/05/2018 22:00,491,,,,,,,,,,,,,,,,,
02/05/2018 23:00,470,,,,,,,,,,,,,,,,,
02/06/2018 0:00,489,,,,,,,,,,,,,,,,,
02/06/2018 1:00,500,,,,,,,,,,,,,,,,,
02/06/2018 2:00,508,,,,,,,,,,,,,,,,,
02/06/2018 3:00,502,,,,,,,,,,,,,,,,,
02/06/2018 4:00,536,,,,,,,,,,,,,,,,,
02/06/2018 5:00,573,,,,,,,,,,,,,,,,,
02/06/2018 6:00,656,,,,,,,,,,,,,,,,,
02/06/2018 7:00,747,,,,,,,,,,,,,,,,,
02/06/2018 8:00,790,,,,,,,,,,,,,,,,,
02/06/2018 9:00,774,,,,,,,,,,,,,,,,,
02/06/2018 10:00,760,,,,,,,,,,,,,,,,,
02/06/2018 11:00,695,,,,,,,,,,,,,,,,,
02/06/2018 12:00,662,,,,,,,,,,,,,,,,,
02/06/2018 13:00,653,,,,,,,,,,,,,,,,,
02/06/2018 14:00,674,,,,,,,,,,,,,,,,,
02/06/2018 15:00,643,,,,,,,,,,,,,,,,,
02/06/2018 16:00,649,,,,,,,,,,,,,,,,,
02/06/2018 17:00,669,,,,,,,,,,,,,,,,,
02/06/2018 18:00,667,,,,,,,,,,,,,,,,,
02/06/2018 19:00,678,,,,,,,,,,,,,,,,,
02/06/2018 20:00,670,,,,,,,,,,,,,,,,,
02/06/2018 21:00,624,,,,,,,,,,,,,,,,,
02/06/2018 22:00,569,,,,,,,,,,,,,,,,,
02/06/2018 23:00,491,,,,,,,,,,,,,,,,,
02/07/2018 0:00,384,,,,,,,,,,,,,,,,,
02/07/2018 1:00,349,,,,,,,,,,,,,,,,,
02/07/2018 2:00,326,,,,,,,,,,,,,,,,,
02/07/2018 3:00,333,,,,,,,,,,,,,,,,,
02/07/2018 4:00,362,,,,,,,,,,,,,,,,,
02/07/2018 5:00,391,,,,,,,,,,,,,,,,,
02/07/2018 6:00,410,,,,,,,,,,,,,,,,,
02/07/2018 7:00,513,,,,,,,,,,,,,,,,,
02/07/2018 8:00,630,,,,,,,,,,,,,,,,,
02/07/2018 9:00,638,,,,,,,,,,,,,,,,,
02/07/2018 10:00,625,,,,,,,,,,,,,,,,,
02/07/2018 11:00,607,,,,,,,,,,,,,,,,,
02/07/2018 12:00,617,,,,,,,,,,,,,,,,,
02/07/2018 13:00,595,,,,,,,,,,,,,,,,,
02/07/2018 14:00,593,,,,,,,,,,,,,,,,,
02/07/2018 15:00,570,,,,,,,,,,,,,,,,,
02/07/2018 16:00,608,,,,,,,,,,,,,,,,,
02/07/2018 17:00,671,,,,,,,,,,,,,,,,,
02/07/2018 18:00,690,,,,,,,,,,,,,,,,,
02/07/2018 19:00,720,,,,,,,,,,,,,,,,,
02/07/2018 20:00,649,,,,,,,,,,,,,,,,,
02/07/2018 21:00,570,,,,,,,,,,,,,,,,,
02/07/2018 22:00,488,,,,,,,,,,,,,,,,,
02/07/2018 23:00,423,,,,,,,,,,,,,,,,,
02/08/2018 0:00,383,,,,,,,,,,,,,,,,,
02/08/2018 1:00,391,,,,,,,,,,,,,,,,,
02/08/2018 2:00,371,,,,,,,,,,,,,,,,,
02/08/2018 3:00,343,,,,,,,,,,,,,,,,,
02/08/2018 4:00,304,,,,,,,,,,,,,,,,,
02/08/2018 5:00,300,,,,,,,,,,,,,,,,,
02/08/2018 6:00,344,,,,,,,,,,,,,,,,,
02/08/2018 7:00,430,,,,,,,,,,,,,,,,,
02/08/2018 8:00,532,,,,,,,,,,,,,,,,,
02/08/2018 9:00,576,,,,,,,,,,,,,,,,,
02/08/2018 10:00,592,,,,,,,,,,,,,,,,,
02/08/2018 11:00,614,,,,,,,,,,,,,,,,,
02/08/2018 12:00,644,,,,,,,,,,,,,,,,,
02/08/2018 13:00,680,,,,,,,,,,,,,,,,,
02/08/2018 14:00,699,,,,,,,,,,,,,,,,,
02/08/2018 15:00,731,,,,,,,,,,,,,,,,,
02/08/2018 16:00,770,,,,,,,,,,,,,,,,,
02/08/2018 17:00,788,,,,,,,,,,,,,,,,,
02/08/2018 18:00,828,,,,,,,,,,,,,,,,,
02/08/2018 19:00,828,,,,,,,,,,,,,,,,,
02/08/2018 20:00,782,,,,,,,,,,,,,,,,,
02/08/2018 21:00,757,,,,,,,,,,,,,,,,,
02/08/2018 22:00,735,,,,,,,,,,,,,,,,,
02/08/2018 23:00,644,,,,,,,,,,,,,,,,,
02/09/2018 0:00,605,,,,,,,,,,,,,,,,,
02/09/2018 1:00,604,,,,,,,,,,,,,,,,,
02/09/2018 2:00,552,,,,,,,,,,,,,,,,,
02/09/2018 3:00,551,,,,,,,,,,,,,,,,,
02/09/2018 4:00,552,,,,,,,,,,,,,,,,,
02/09/2018 5:00,555,,,,,,,,,,,,,,,,,
02/09/2018 6:00,594,,,,,,,,,,,,,,,,,
02/09/2018 7:00,694,,,,,,,,,,,,,,,,,
02/09/2018 8:00,765,,,,,,,,,,,,,,,,,
02/09/2018 9:00,779,,,,,,,,,,,,,,,,,
02/09/2018 10:00,758,,,,,,,,,,,,,,,,,
02/09/2018 11:00,734,,,,,,,,,,,,,,,,,
02/09/2018 12:00,708,,,,,,,,,,,,,,,,,
02/09/2018 13:00,728,,,,,,,,,,,,,,,,,
02/09/2018 14:00,721,,,,,,,,,,,,,,,,,
02/09/2018 15:00,705,,,,,,,,,,,,,,,,,
02/09/2018 16:00,689,,,,,,,,,,,,,,,,,
02/09/2018 17:00,699,,,,,,,,,,,,,,,,,
02/09/2018 18:00,733,,,,,,,,,,,,,,,,,
02/09/2018 19:00,763,,,,,,,,,,,,,,,,,
02/09/2018 20:00,727,,,,,,,,,,,,,,,,,
02/09/2018 21:00,731,,,,,,,,,,,,,,,,,
02/09/2018 22:00,732,,,,,,,,,,,,,,,,,
02/09/2018 23:00,663,,,,,,,,,,,,,,,,,
02/10/2018 0:00,652,,,,,,,,,,,,,,,,,
02/10/2018 1:00,625,,,,,,,,,,,,,,,,,
02/10/2018 2:00,597,,,,,,,,,,,,,,,,,
02/10/2018 3:00,559,,,,,,,,,,,,,,,,,
02/10/2018 4:00,549,,,,,,,,,,,,,,,,,
02/10/2018 5:00,544,,,,,,,,,,,,,,,,,
02/10/2018 6:00,546,,,,,,,,,,,,,,,,,
02/10/2018 7:00,531,,,,,,,,,,,,,,,,,
02/10/2018 8:00,551,,,,,,,,,,,,,,,,,
02/10/2018 9:00,583,,,,,,,,,,,,,,,,,
02/10/2018 10:00,614,,,,,,,,,,,,,,,,,
02/10/2018 11:00,609,,,,,,,,,,,,,,,,,
02/10/2018 12:00,607,,,,,,,,,,,,,,,,,
02/10/2018 13:00,600,,,,,,,,,,,,,,,,,
02/10/2018 14:00,599,,,,,,,,,,,,,,,,,
02/10/2018 15:00,571,,,,,,,,,,,,,,,,,
02/10/2018 16:00,556,,,,,,,,,,,,,,,,,
02/10/2018 17:00,569,,,,,,,,,,,,,,,,,
02/10/2018 18:00,554,,,,,,,,,,,,,,,,,
02/10/2018 19:00,541,,,,,,,,,,,,,,,,,
02/10/2018 20:00,496,,,,,,,,,,,,,,,,,
02/10/2018 21:00,458,,,,,,,,,,,,,,,,,
02/10/2018 22:00,422,,,,,,,,,,,,,,,,,
02/10/2018 23:00,382,,,,,,,,,,,,,,,,,
02/11/2018 0:00,333,,,,,,,,,,,,,,,,,
02/11/2018 1:00,299,,,,,,,,,,,,,,,,,
02/11/2018 2:00,260,,,,,,,,,,,,,,,,,
02/11/2018 3:00,260,,,,,,,,,,,,,,,,,
02/11/2018 4:00,307,,,,,,,,,,,,,,,,,
02/11/2018 5:00,382,,,,,,,,,,,,,,,,,
02/11/2018 6:00,444,,,,,,,,,,,,,,,,,
02/11/2018 7:00,478,,,,,,,,,,,,,,,,,
02/11/2018 8:00,518,,,,,,,,,,,,,,,,,
02/11/2018 9:00,575,,,,,,,,,,,,,,,,,
02/11/2018 10:00,627,,,,,,,,,,,,,,,,,
02/11/2018 11:00,656,,,,,,,,,,,,,,,,,
02/11/2018 12:00,656,,,,,,,,,,,,,,,,,
02/11/2018 13:00,648,,,,,,,,,,,,,,,,,
02/11/2018 14:00,655,,,,,,,,,,,,,,,,,
02/11/2018 15:00,661,,,,,,,,,,,,,,,,,
02/11/2018 16:00,678,,,,,,,,,,,,,,,,,
02/11/2018 17:00,678,,,,,,,,,,,,,,,,,
02/11/2018 18:00,710,,,,,,,,,,,,,,,,,
02/11/2018 19:00,708,,,,,,,,,,,,,,,,,
02/11/2018 20:00,685,,,,,,,,,,,,,,,,,
02/11/2018 21:00,672,,,,,,,,,,,,,,,,,
02/11/2018 22:00,642,,,,,,,,,,,,,,,,,
02/11/2018 23:00,583,,,,,,,,,,,,,,,,,
02/12/2018 0:00,505,,,,,,,,,,,,,,,,,
02/12/2018 1:00,442,,,,,,,,,,,,,,,,,
02/12/2018 2:00,404,,,,,,,,,,,,,,,,,
02/12/2018 3:00,337,,,,,,,,,,,,,,,,,
02/12/2018 4:00,234,,,,,,,,,,,,,,,,,
02/12/2018 5:00,244,,,,,,,,,,,,,,,,,
02/12/2018 6:00,289,,,,,,,,,,,,,,,,,
02/12/2018 7:00,388,,,,,,,,,,,,,,,,,
02/12/2018 8:00,484,,,,,,,,,,,,,,,,,
02/12/2018 9:00,533,,,,,,,,,,,,,,,,,
02/12/2018 10:00,531,,,,,,,,,,,,,,,,,
02/12/2018 11:00,525,,,,,,,,,,,,,,,,,
02/12/2018 12:00,527,,,,,,,,,,,,,,,,,
02/12/2018 13:00,525,,,,,,,,,,,,,,,,,
02/12/2018 14:00,513,,,,,,,,,,,,,,,,,
02/12/2018 15:00,519,,,,,,,,,,,,,,,,,
02/12/2018 16:00,538,,,,,,,,,,,,,,,,,
02/12/2018 17:00,551,,,,,,,,,,,,,,,,,
02/12/2018 18:00,576,,,,,,,,,,,,,,,,,
02/12/2018 19:00,579,,,,,,,,,,,,,,,,,
02/12/2018 20:00,585,,,,,,,,,,,,,,,,,
02/12/2018 21:00,578,,,,,,,,,,,,,,,,,
02/12/2018 22:00,588,,,,,,,,,,,,,,,,,
02/12/2018 23:00,519,,,,,,,,,,,,,,,,,
02/13/2018 0:00,463,,,,,,,,,,,,,,,,,
02/13/2018 1:00,449,,,,,,,,,,,,,,,,,
02/13/2018 2:00,444,,,,,,,,,,,,,,,,,
02/13/2018 3:00,442,,,,,,,,,,,,,,,,,
02/13/2018 4:00,448,,,,,,,,,,,,,,,,,
02/13/2018 5:00,456,,,,,,,,,,,,,,,,,
02/13/2018 6:00,516,,,,,,,,,,,,,,,,,
02/13/2018 7:00,610,,,,,,,,,,,,,,,,,
02/13/2018 8:00,699,,,,,,,,,,,,,,,,,
02/13/2018 9:00,666,,,,,,,,,,,,,,,,,
02/13/2018 10:00,645,,,,,,,,,,,,,,,,,
02/13/2018 11:00,633,,,,,,,,,,,,,,,,,
02/13/2018 12:00,644,,,,,,,,,,,,,,,,,
02/13/2018 13:00,661,,,,,,,,,,,,,,,,,
02/13/2018 14:00,678,,,,,,,,,,,,,,,,,
02/13/2018 15:00,676,,,,,,,,,,,,,,,,,
02/13/2018 16:00,684,,,,,,,,,,,,,,,,,
02/13/2018 17:00,679,,,,,,,,,,,,,,,,,
02/13/2018 18:00,737,,,,,,,,,,,,,,,,,
02/13/2018 19:00,775,,,,,,,,,,,,,,,,,
02/13/2018 20:00,776,,,,,,,,,,,,,,,,,
02/13/2018 21:00,772,,,,,,,,,,,,,,,,,
02/13/2018 22:00,729,,,,,,,,,,,,,,,,,
02/13/2018 23:00,677,,,,,,,,,,,,,,,,,
02/14/2018 0:00,686,,,,,,,,,,,,,,,,,
02/14/2018 1:00,649,,,,,,,,,,,,,,,,,
02/14/2018 2:00,596,,,,,,,,,,,,,,,,,
02/14/2018 3:00,579,,,,,,,,,,,,,,,,,
02/14/2018 4:00,555,,,,,,,,,,,,,,,,,
02/14/2018 5:00,555,,,,,,,,,,,,,,,,,
02/14/2018 6:00,584,,,,,,,,,,,,,,,,,
02/14/2018 7:00,676,,,,,,,,,,,,,,,,,
02/14/2018 8:00,706,,,,,,,,,,,,,,,,,
02/14/2018 9:00,693,,,,,,,,,,,,,,,,,
02/14/2018 10:00,664,,,,,,,,,,,,,,,,,
02/14/2018 11:00,620,,,,,,,,,,,,,,,,,
02/14/2018 12:00,605,,,,,,,,,,,,,,,,,
02/14/2018 13:00,576,,,,,,,,,,,,,,,,,
02/14/2018 14:00,568,,,,,,,,,,,,,,,,,
02/14/2018 15:00,579,,,,,,,,,,,,,,,,,
02/14/2018 16:00,594,,,,,,,,,,,,,,,,,
02/14/2018 17:00,611,,,,,,,,,,,,,,,,,
02/14/2018 18:00,691,,,,,,,,,,,,,,,,,
02/14/2018 19:00,695,,,,,,,,,,,,,,,,,
02/14/2018 20:00,656,,,,,,,,,,,,,,,,,
02/14/2018 21:00,618,,,,,,,,,,,,,,,,,
02/14/2018 22:00,560,,,,,,,,,,,,,,,,,
02/14/2018 23:00,512,,,,,,,,,,,,,,,,,
02/15/2018 0:00,487,,,,,,,,,,,,,,,,,
02/15/2018 1:00,469,,,,,,,,,,,,,,,,,
02/15/2018 2:00,434,,,,,,,,,,,,,,,,,
02/15/2018 3:00,433,,,,,,,,,,,,,,,,,
02/15/2018 4:00,453,,,,,,,,,,,,,,,,,
02/15/2018 5:00,476,,,,,,,,,,,,,,,,,
02/15/2018 6:00,534,,,,,,,,,,,,,,,,,
02/15/2018 7:00,637,,,,,,,,,,,,,,,,,
02/15/2018 8:00,711,,,,,,,,,,,,,,,,,
02/15/2018 9:00,734,,,,,,,,,,,,,,,,,
02/15/2018 10:00,706,,,,,,,,,,,,,,,,,
02/15/2018 11:00,677,,,,,,,,,,,,,,,,,
02/15/2018 12:00,646,,,,,,,,,,,,,,,,,
02/15/2018 13:00,616,,,,,,,,,,,,,,,,,
02/15/2018 14:00,578,,,,,,,,,,,,,,,,,
02/15/2018 15:00,545,,,,,,,,,,,,,,,,,
02/15/2018 16:00,550,,,,,,,,,,,,,,,,,
02/15/2018 17:00,597,,,,,,,,,,,,,,,,,
02/15/2018 18:00,634,,,,,,,,,,,,,,,,,
02/15/2018 19:00,619,,,,,,,,,,,,,,,,,
02/15/2018 20:00,615,,,,,,,,,,,,,,,,,
02/15/2018 21:00,606,,,,,,,,,,,,,,,,,
02/15/2018 22:00,567,,,,,,,,,,,,,,,,,
02/15/2018 23:00,494,,,,,,,,,,,,,,,,,
02/16/2018 0:00,456,,,,,,,,,,,,,,,,,
02/16/2018 1:00,420,,,,,,,,,,,,,,,,,
02/16/2018 2:00,379,,,,,,,,,,,,,,,,,
02/16/2018 3:00,330,,,,,,,,,,,,,,,,,
02/16/2018 4:00,309,,,,,,,,,,,,,,,,,
02/16/2018 5:00,349,,,,,,,,,,,,,,,,,
02/16/2018 6:00,418,,,,,,,,,,,,,,,,,
02/16/2018 7:00,535,,,,,,,,,,,,,,,,,
02/16/2018 8:00,590,,,,,,,,,,,,,,,,,
02/16/2018 9:00,632,,,,,,,,,,,,,,,,,
02/16/2018 10:00,659,,,,,,,,,,,,,,,,,
02/16/2018 11:00,667,,,,,,,,,,,,,,,,,
02/16/2018 12:00,674,,,,,,,,,,,,,,,,,
02/16/2018 13:00,674,,,,,,,,,,,,,,,,,
02/16/2018 14:00,666,,,,,,,,,,,,,,,,,
02/16/2018 15:00,638,,,,,,,,,,,,,,,,,
02/16/2018 16:00,648,,,,,,,,,,,,,,,,,
02/16/2018 17:00,646,,,,,,,,,,,,,,,,,
02/16/2018 18:00,656,,,,,,,,,,,,,,,,,
02/16/2018 19:00,629,,,,,,,,,,,,,,,,,
02/16/2018 20:00,550,,,,,,,,,,,,,,,,,
02/16/2018 21:00,477,,,,,,,,,,,,,,,,,
02/16/2018 22:00,434,,,,,,,,,,,,,,,,,
02/16/2018 23:00,364,,,,,,,,,,,,,,,,,
02/17/2018 0:00,323,,,,,,,,,,,,,,,,,
02/17/2018 1:00,315,,,,,,,,,,,,,,,,,
02/17/2018 2:00,317,,,,,,,,,,,,,,,,,
02/17/2018 3:00,307,,,,,,,,,,,,,,,,,
02/17/2018 4:00,318,,,,,,,,,,,,,,,,,
02/17/2018 5:00,334,,,,,,,,,,,,,,,,,
02/17/2018 6:00,360,,,,,,,,,,,,,,,,,
02/17/2018 7:00,424,,,,,,,,,,,,,,,,,
02/17/2018 8:00,496,,,,,,,,,,,,,,,,,
02/17/2018 9:00,552,,,,,,,,,,,,,,,,,
02/17/2018 10:00,567,,,,,,,,,,,,,,,,,
02/17/2018 11:00,565,,,,,,,,,,,,,,,,,
02/17/2018 12:00,575,,,,,,,,,,,,,,,,,
02/17/2018 13:00,617,,,,,,,,,,,,,,,,,
02/17/2018 14:00,632,,,,,,,,,,,,,,,,,
02/17/2018 15:00,634,,,,,,,,,,,,,,,,,
02/17/2018 16:00,650,,,,,,,,,,,,,,,,,
02/17/2018 17:00,668,,,,,,,,,,,,,,,,,
02/17/2018 18:00,740,,,,,,,,,,,,,,,,,
02/17/2018 19:00,786,,,,,,,,,,,,,,,,,
02/17/2018 20:00,782,,,,,,,,,,,,,,,,,
02/17/2018 21:00,763,,,,,,,,,,,,,,,,,
02/17/2018 22:00,747,,,,,,,,,,,,,,,,,
02/17/2018 23:00,758,,,,,,,,,,,,,,,,,
02/18/2018 0:00,693,,,,,,,,,,,,,,,,,
02/18/2018 1:00,639,,,,,,,,,,,,,,,,,
02/18/2018 2:00,570,,,,,,,,,,,,,,,,,
02/18/2018 3:00,538,,,,,,,,,,,,,,,,,
02/18/2018 4:00,551,,,,,,,,,,,,,,,,,
02/18/2018 5:00,547,,,,,,,,,,,,,,,,,
02/18/2018 6:00,545,,,,,,,,,,,,,,,,,
02/18/2018 7:00,555,,,,,,,,,,,,,,,,,
02/18/2018 8:00,607,,,,,,,,,,,,,,,,,
02/18/2018 9:00,658,,,,,,,,,,,,,,,,,
02/18/2018 10:00,678,,,,,,,,,,,,,,,,,
02/18/2018 11:00,719,,,,,,,,,,,,,,,,,
02/18/2018 12:00,741,,,,,,,,,,,,,,,,,
02/18/2018 13:00,763,,,,,,,,,,,,,,,,,
02/18/2018 14:00,751,,,,,,,,,,,,,,,,,
02/18/2018 15:00,729,,,,,,,,,,,,,,,,,
02/18/2018 16:00,673,,,,,,,,,,,,,,,,,
02/18/2018 17:00,690,,,,,,,,,,,,,,,,,
02/18/2018 18:00,718,,,,,,,,,,,,,,,,,
02/18/2018 19:00,732,,,,,,,,,,,,,,,,,
02/18/2018 20:00,709,,,,,,,,,,,,,,,,,
02/18/2018 21:00,644,,,,,,,,,,,,,,,,,
02/18/2018 22:00,575,,,,,,,,,,,,,,,,,
02/18/2018 23:00,537,,,,,,,,,,,,,,,,,
02/19/2018 0:00,509,,,,,,,,,,,,,,,,,
02/19/2018 1:00,454,,,,,,,,,,,,,,,,,
02/19/2018 2:00,462,,,,,,,,,,,,,,,,,
02/19/2018 3:00,510,,,,,,,,,,,,,,,,,
02/19/2018 4:00,560,,,,,,,,,,,,,,,,,
02/19/2018 5:00,600,,,,,,,,,,,,,,,,,
02/19/2018 6:00,648,,,,,,,,,,,,,,,,,
02/19/2018 7:00,693,,,,,,,,,,,,,,,,,
02/19/2018 8:00,753,,,,,,,,,,,,,,,,,
02/19/2018 9:00,749,,,,,,,,,,,,,,,,,
02/19/2018 10:00,728,,,,,,,,,,,,,,,,,
02/19/2018 11:00,687,,,,,,,,,,,,,,,,,
02/19/2018 12:00,657,,,,,,,,,,,,,,,,,
02/19/2018 13:00,605,,,,,,,,,,,,,,,,,
02/19/2018 14:00,575,,,,,,,,,,,,,,,,,
02/19/2018 15:00,552,,,,,,,,,,,,,,,,,
02/19/2018 16:00,540,,,,,,,,,,,,,,,,,
02/19/2018 17:00,571,,,,,,,,,,,,,,,,,
02/19/2018 18:00,587,,,,,,,,,,,,,,,,,
02/19/2018 19:00,595,,,,,,,,,,,,,,,,,
02/19/2018 20:00,547,,,,,,,,,,,,,,,,,
02/19/2018 21:00,508,,,,,,,,,,,,,,,,,
02/19/2018 22:00,490,,,,,,,,,,,,,,,,,
02/19/2018 23:00,428,,,,,,,,,,,,,,,,,
02/20/2018 0:00,379,,,,,,,,,,,,,,,,,
02/20/2018 1:00,343,,,,,,,,,,,,,,,,,
02/20/2018 2:00,354,,,,,,,,,,,,,,,,,
02/20/2018 3:00,336,,,,,,,,,,,,,,,,,
02/20/2018 4:00,316,,,,,,,,,,,,,,,,,
02/20/2018 5:00,336,,,,,,,,,,,,,,,,,
02/20/2018 6:00,416,,,,,,,,,,,,,,,,,
02/20/2018 7:00,532,,,,,,,,,,,,,,,,,
02/20/2018 8:00,624,,,,,,,,,,,,,,,,,
02/20/2018 9:00,657,,,,,,,,,,,,,,,,,
02/20/2018 10:00,660,,,,,,,,,,,,,,,,,
02/20/2018 11:00,658,,,,,,,,,,,,,,,,,
02/20/2018 12:00,656,,,,,,,,,,,,,,,,,
02/20/2018 13:00,659,,,,,,,,,,,,,,,,,
02/20/2018 14:00,651,,,,,,,,,,,,,,,,,
02/20/2018 15:00,645,,,,,,,,,,,,,,,,,
02/20/2018 16:00,671,,,,,,,,,,,,,,,,,
02/20/2018 17:00,675,,,,,,,,,,,,,,,,,
02/20/2018 18:00,701,,,,,,,,,,,,,,,,,
02/20/2018 19:00,699,,,,,,,,,,,,,,,,,
02/20/2018 20:00,667,,,,,,,,,,,,,,,,,
02/20/2018 21:00,628,,,,,,,,,,,,,,,,,
02/20/2018 22:00,576,,,,,,,,,,,,,,,,,
02/20/2018 23:00,534,,,,,,,,,,,,,,,,,
02/21/2018 0:00,509,,,,,,,,,,,,,,,,,
02/21/2018 1:00,463,,,,,,,,,,,,,,,,,
02/21/2018 2:00,447,,,,,,,,,,,,,,,,,
02/21/2018 3:00,421,,,,,,,,,,,,,,,,,
02/21/2018 4:00,409,,,,,,,,,,,,,,,,,
02/21/2018 5:00,409,,,,,,,,,,,,,,,,,
02/21/2018 6:00,406,,,,,,,,,,,,,,,,,
02/21/2018 7:00,514,,,,,,,,,,,,,,,,,
02/21/2018 8:00,591,,,,,,,,,,,,,,,,,
02/21/2018 9:00,590,,,,,,,,,,,,,,,,,
02/21/2018 10:00,566,,,,,,,,,,,,,,,,,
02/21/2018 11:00,569,,,,,,,,,,,,,,,,,
02/21/2018 12:00,554,,,,,,,,,,,,,,,,,
02/21/2018 13:00,511,,,,,,,,,,,,,,,,,
02/21/2018 14:00,510,,,,,,,,,,,,,,,,,
02/21/2018 15:00,494,,,,,,,,,,,,,,,,,
02/21/2018 16:00,473,,,,,,,,,,,,,,,,,
02/21/2018 17:00,458,,,,,,,,,,,,,,,,,
02/21/2018 18:00,501,,,,,,,,,,,,,,,,,
02/21/2018 19:00,489,,,,,,,,,,,,,,,,,
02/21/2018 20:00,456,,,,,,,,,,,,,,,,,
02/21/2018 21:00,392,,,,,,,,,,,,,,,,,
02/21/2018 22:00,354,,,,,,,,,,,,,,,,,
02/21/2018 23:00,342,,,,,,,,,,,,,,,,,
02/22/2018 0:00,314,,,,,,,,,,,,,,,,,
02/22/2018 1:00,281,,,,,,,,,,,,,,,,,
02/22/2018 2:00,220,,,,,,,,,,,,,,,,,
02/22/2018 3:00,232,,,,,,,,,,,,,,,,,
02/22/2018 4:00,243,,,,,,,,,,,,,,,,,
02/22/2018 5:00,277,,,,,,,,,,,,,,,,,
02/22/2018 6:00,346,,,,,,,,,,,,,,,,,
02/22/2018 7:00,469,,,,,,,,,,,,,,,,,
02/22/2018 8:00,563,,,,,,,,,,,,,,,,,
02/22/2018 9:00,559,,,,,,,,,,,,,,,,,
02/22/2018 10:00,577,,,,,,,,,,,,,,,,,
02/22/2018 11:00,601,,,,,,,,,,,,,,,,,
02/22/2018 12:00,621,,,,,,,,,,,,,,,,,
02/22/2018 13:00,617,,,,,,,,,,,,,,,,,
02/22/2018 14:00,617,,,,,,,,,,,,,,,,,
02/22/2018 15:00,599,,,,,,,,,,,,,,,,,
02/22/2018 16:00,628,,,,,,,,,,,,,,,,,
02/22/2018 17:00,662,,,,,,,,,,,,,,,,,
02/22/2018 18:00,705,,,,,,,,,,,,,,,,,
02/22/2018 19:00,722,,,,,,,,,,,,,,,,,
02/22/2018 20:00,719,,,,,,,,,,,,,,,,,
02/22/2018 21:00,669,,,,,,,,,,,,,,,,,
02/22/2018 22:00,622,,,,,,,,,,,,,,,,,
02/22/2018 23:00,567,,,,,,,,,,,,,,,,,
02/23/2018 0:00,527,,,,,,,,,,,,,,,,,
02/23/2018 1:00,507,,,,,,,,,,,,,,,,,
02/23/2018 2:00,487,,,,,,,,,,,,,,,,,
02/23/2018 3:00,457,,,,,,,,,,,,,,,,,
02/23/2018 4:00,455,,,,,,,,,,,,,,,,,
02/23/2018 5:00,440,,,,,,,,,,,,,,,,,
02/23/2018 6:00,481,,,,,,,,,,,,,,,,,
02/23/2018 7:00,586,,,,,,,,,,,,,,,,,
02/23/2018 8:00,739,,,,,,,,,,,,,,,,,
02/23/2018 9:00,744,,,,,,,,,,,,,,,,,
02/23/2018 10:00,725,,,,,,,,,,,,,,,,,
02/23/2018 11:00,704,,,,,,,,,,,,,,,,,
02/23/2018 12:00,666,,,,,,,,,,,,,,,,,
02/23/2018 13:00,659,,,,,,,,,,,,,,,,,
02/23/2018 14:00,641,,,,,,,,,,,,,,,,,
02/23/2018 15:00,627,,,,,,,,,,,,,,,,,
02/23/2018 16:00,603,,,,,,,,,,,,,,,,,
02/23/2018 17:00,615,,,,,,,,,,,,,,,,,
02/23/2018 18:00,644,,,,,,,,,,,,,,,,,
02/23/2018 19:00,644,,,,,,,,,,,,,,,,,
02/23/2018 20:00,620,,,,,,,,,,,,,,,,,
02/23/2018 21:00,570,,,,,,,,,,,,,,,,,
02/23/2018 22:00,528,,,,,,,,,,,,,,,,,
02/23/2018 23:00,484,,,,,,,,,,,,,,,,,
02/24/2018 0:00,418,,,,,,,,,,,,,,,,,
02/24/2018 1:00,400,,,,,,,,,,,,,,,,,
02/24/2018 2:00,349,,,,,,,,,,,,,,,,,
02/24/2018 3:00,383,,,,,,,,,,,,,,,,,
02/24/2018 4:00,415,,,,,,,,,,,,,,,,,
02/24/2018 5:00,409,,,,,,,,,,,,,,,,,
02/24/2018 6:00,376,,,,,,,,,,,,,,,,,
02/24/2018 7:00,369,,,,,,,,,,,,,,,,,
02/24/2018 8:00,373,,,,,,,,,,,,,,,,,
02/24/2018 9:00,390,,,,,,,,,,,,,,,,,
02/24/2018 10:00,433,,,,,,,,,,,,,,,,,
02/24/2018 11:00,398,,,,,,,,,,,,,,,,,
02/24/2018 12:00,413,,,,,,,,,,,,,,,,,
02/24/2018 13:00,378,,,,,,,,,,,,,,,,,
02/24/2018 14:00,331,,,,,,,,,,,,,,,,,
02/24/2018 15:00,294,,,,,,,,,,,,,,,,,
02/24/2018 16:00,297,,,,,,,,,,,,,,,,,
02/24/2018 17:00,338,,,,,,,,,,,,,,,,,
02/24/2018 18:00,387,,,,,,,,,,,,,,,,,
02/24/2018 19:00,417,,,,,,,,,,,,,,,,,
02/24/2018 20:00,406,,,,,,,,,,,,,,,,,
02/24/2018 21:00,411,,,,,,,,,,,,,,,,,
02/24/2018 22:00,399,,,,,,,,,,,,,,,,,
02/24/2018 23:00,355,,,,,,,,,,,,,,,,,
02/25/2018 0:00,327,,,,,,,,,,,,,,,,,
02/25/2018 1:00,314,,,,,,,,,,,,,,,,,
02/25/2018 2:00,319,,,,,,,,,,,,,,,,,
02/25/2018 3:00,343,,,,,,,,,,,,,,,,,
02/25/2018 4:00,360,,,,,,,,,,,,,,,,,
02/25/2018 5:00,381,,,,,,,,,,,,,,,,,
02/25/2018 6:00,423,,,,,,,,,,,,,,,,,
02/25/2018 7:00,485,,,,,,,,,,,,,,,,,
02/25/2018 8:00,554,,,,,,,,,,,,,,,,,
02/25/2018 9:00,575,,,,,,,,,,,,,,,,,
02/25/2018 10:00,594,,,,,,,,,,,,,,,,,
02/25/2018 11:00,587,,,,,,,,,,,,,,,,,
02/25/2018 12:00,583,,,,,,,,,,,,,,,,,
02/25/2018 13:00,583,,,,,,,,,,,,,,,,,
02/25/2018 14:00,573,,,,,,,,,,,,,,,,,
02/25/2018 15:00,534,,,,,,,,,,,,,,,,,
02/25/2018 16:00,533,,,,,,,,,,,,,,,,,
02/25/2018 17:00,555,,,,,,,,,,,,,,,,,
02/25/2018 18:00,602,,,,,,,,,,,,,,,,,
02/25/2018 19:00,610,,,,,,,,,,,,,,,,,
02/25/2018 20:00,596,,,,,,,,,,,,,,,,,
02/25/2018 21:00,571,,,,,,,,,,,,,,,,,
02/25/2018 22:00,515,,,,,,,,,,,,,,,,,
02/25/2018 23:00,459,,,,,,,,,,,,,,,,,
02/26/2018 0:00,399,,,,,,,,,,,,,,,,,
02/26/2018 1:00,359,,,,,,,,,,,,,,,,,
02/26/2018 2:00,320,,,,,,,,,,,,,,,,,
02/26/2018 3:00,289,,,,,,,,,,,,,,,,,
02/26/2018 4:00,287,,,,,,,,,,,,,,,,,
02/26/2018 5:00,288,,,,,,,,,,,,,,,,,
02/26/2018 6:00,332,,,,,,,,,,,,,,,,,
02/26/2018 7:00,438,,,,,,,,,,,,,,,,,
02/26/2018 8:00,559,,,,,,,,,,,,,,,,,
02/26/2018 9:00,624,,,,,,,,,,,,,,,,,
02/26/2018 10:00,663,,,,,,,,,,,,,,,,,
02/26/2018 11:00,657,,,,,,,,,,,,,,,,,
02/26/2018 12:00,640,,,,,,,,,,,,,,,,,
02/26/2018 13:00,661,,,,,,,,,,,,,,,,,
02/26/2018 14:00,641,,,,,,,,,,,,,,,,,
02/26/2018 15:00,562,,,,,,,,,,,,,,,,,
02/26/2018 16:00,545,,,,,,,,,,,,,,,,,
02/26/2018 17:00,537,,,,,,,,,,,,,,,,,
02/26/2018 18:00,556,,,,,,,,,,,,,,,,,
02/26/2018 19:00,540,,,,,,,,,,,,,,,,,
02/26/2018 20:00,536,,,,,,,,,,,,,,,,,
02/26/2018 21:00,507,,,,,,,,,,,,,,,,,